Location: El Carrer d�Abaix
(41.5797°N, 2.1791°E)
Time: 00:47:20
(UTC+00:00)

STARLINK-1206 - Pass Details

Date: 06 June 2020
Orbit: 548 x 550 km, 53.0° (Epoch: 15 July)

Event Time Altitude Azimuth Distance (km) Brightness Sun altitude
Rises 22:20:42 0° 309° (NW) 2,724 8.2 -22.4°
Reaches altitude 10° 22:22:58 10° 312° (NW) 1,828 7.2 -22.6°
Maximum altitude 22:27:05 63° 35° (NE) 616 3.9 -22.8°
Enters shadow 22:27:30 59° 67° (ENE) 639 3.8 -22.9°
